Location: Newark
(40.7066°N, 111.8219°W)
Time: 22:44:31
(UTC+00:00)

Transit 2A Rocket - Visible Passes

Search period start: 16 November 2019 00:00
Search period end: 26 November 2019 00:00
Orbit: 594 x 909 km, 66.7° (Epoch: 16 November)

Date Brightness Start Highest point End Pass type
(mag) Time Alt. Az. Time Alt. Az. Time Alt. Az.
16 Nov 7.0 13:21:40 10° N 13:24:35 17° NE 13:27:34 10° E visible
17 Nov 7.4 12:40:55 10° NNE 12:41:42 10° NE 12:42:28 10° NE visible
18 Nov 5.8 13:38:12 10° NNW 13:42:21 41° NE 13:46:41 10° SE visible
19 Nov 6.6 12:56:06 10° N 12:59:41 24° NE 13:03:21 10° ESE visible
20 Nov 7.2 12:14:24 10° N 12:16:53 15° NE 12:19:23 10° E visible
21 Nov 5.0 13:12:58 10° NNW 13:17:18 63° ENE 13:21:54 10° SE visible
22 Nov 6.0 12:31:26 14° N 12:34:42 34° NE 12:38:54 10° ESE visible
23 Nov 6.7 11:50:30 17° NNE 11:51:59 20° NE 11:55:22 10° E visible
23 Nov 5.0 13:30:28 10° NW 13:34:41 45° WSW 13:39:09 10° S visible
24 Nov 7.5 11:09:37 12° NE 11:09:37 12° NE 11:11:01 10° ENE visible
24 Nov 4.5 12:49:35 24° NNW 12:52:14 86° WSW 12:56:54 10° SSE visible
25 Nov 5.3 12:08:46 43° NNE 12:09:41 50° ENE 12:14:12 10° SE visible
25 Nov 6.3 13:49:05 10° WNW 13:51:50 16° WSW 13:54:42 10° SW visible
